RH
68 68 68 71 71 68 70 74 74 74 74 74 75 76 77 79 82 60 50 32 38 55 66 24 36 30 29 37 34 31 40 32 27 24 20 15 15 11 12 13 13 15 17 18 16
69 68 69 68 69 70 72 75 74 73 74 74 75 76 78 80 82 63 43 53 52 69 28 18 17 34 39 34 35 43 39 29 18 17 18 15 14 14 15 16 16 16 15 14 13
72 72 73 73 70 76 76 76 75 75 73 74 75 76 78 78 64 24 56 60 54 62 18 16 15 17 37 30 30 31 39 27 21 17 16 16 17 16 16 18 18 18 16 13 14
74 74 75 76 76 76 77 77 77 75 74 75 76 76 76 74 37 24 59 68 69 37 19 16 16 18 20 29 24 31 28 27 22 18 17 18 16 18 18 18 15 14 16 16 17
77 76 76 77 77 78 81 80 79 78 78 78 75 74 72 63 51 18 55 47 18 17 18 18 18 20 22 19 23 26 22 19 20 20 19 17 18 18 18 14 13 12 13 17 19
79 79 78 76 77 80 84 85 85 84 80 78 75 74 82 90 26 16 14 17 18 17 17 18 20 18 20 19 18 20 23 21 18 17 16 17 16 15 14 13 13 12 14 17 18
84 83 80 79 79 81 83 84 84 83 77 75 73 66 75 73 25 20 24 22 17 15 17 18 22 23 20 22 17 18 20 17 17 18 18 15 18 17 14 14 15 14 12 12 16
82 84 82 80 81 82 83 84 85 83 77 75 73 72 82 33 31 32 28 26 18 14 13 14 14 17 24 22 22 24 23 27 18 16 15 17 24 18 15 16 19 16 14 16 19
78 84 84 81 80 82 85 87 86 80 77 73 79 83 64 31 31 23 20 20 16 12 12 9 14 21 22 29 30 28 34 29 24 16 16 20 23 17 16 16 17 16 15 15 16
78 84 86 84 81 85 87 86 75 72 61 46 48 67 44 34 19 15 19 18 17 16 15 13 19 25 25 30 38 34 32 27 27 20 18 20 20 16 15 15 16 16 16 17 17
79 84 85 85 85 86 86 75 39 56 60 37 33 50 38 25 19 14 10 13 16 22 25 21 26 32 26 24 25 21 26 26 23 18 20 20 20 18 17 19 18 20 23 23 26
81 82 84 87 88 86 91 75 32 32 42 28 27 25 21 19 23 18 12 16 18 24 27 30 27 21 21 20 22 23 22 21 19 18 19 20 20 18 17 16 15 15 17 23 28
86 87 87 89 88 87 59 32 24 29 50 34 25 26 25 20 25 22 15 15 17 18 20 30 28 16 19 23 23 22 23 20 20 17 15 17 22 20 16 16 15 19 20 23 25
86 87 88 89 76 54 41 28 28 34 66 40 36 28 20 20 25 15 12 15 16 18 16 17 15 21 19 21 21 26 18 17 18 21 25 20 29 20 16 16 16 14 20 20 20
85 86 86 88 82 63 41 30 39 48 91 37 30 25 15 25 26 24 21 14 20 19 16 18 16 16 20 20 16 22 18 18 18 20 20 20 29 18 22 25 26 23 19 22 24
83 83 85 62 80 54 35 35 49 87 94 56 19 16 15 16 16 20 29 26 23 19 17 17 12 12 13 10 15 14 19 20 21 23 31 21 22 20 18 17 23 20 21 18 20
83 83 86 56 65 35 39 54 87 89 48 32 20 24 25 34 30 28 32 38 67 65 30 20 18 13 12 14 12 15 21 33 42 36 35 19 24 20 23 21 19 18 19 20 22
85 87 77 47 46 46 55 83 87 55 49 18 17 24 32 28 32 36 32 33 42 50 58 53 50 31 21 14 16 17 22 30 49 42 30 20 26 23 17 14 15 13 17 32 42
84 66 68 54 41 54 74 94 84 53 30 28 25 30 37 31 40 62 46 41 40 37 70 63 44 28 25 22 19 16 20 19 25 25 32 24 20 15 13 12 16 18 27 51 54
91 74 61 43 48 65 88 74 51 30 34 35 34 30 43 44 48 69 62 38 43 32 44 42 58 28 22 19 22 34 18 32 24 38 43 30 22 22 16 18 14 25 42 53 54
94 79 55 37 54 79 97 72 42 30 31 31 42 37 36 54 57 49 57 42 46 42 60 55 54 42 30 28 34 39 23 20 28 24 35 42 30 17 16 14 20 29 45 50 51
76 84 45 47 89 94 91 48 44 34 35 41 49 42 44 48 55 52 64 68 76 59 60 50 78 75 50 37 28 30 34 18 30 37 26 34 27 18 19 26 25 34 43 46 46
91 70 53 54 96 91 58 40 36 38 50 58 42 40 48 58 79 79 83 60 55 59 69 73 85 92 65 39 35 40 37 30 26 34 29 30 27 14 16 22 20 37 42 42 46
87 90 64 60 57 64 59 54 57 39 38 35 42 46 56 59 48 59 84 63 67 63 61 74 79 75 85 68 70 79 65 58 62 42 29 26 22 15 23 21 31 37 41 42 44
86 83 65 88 78 66 67 77 79 58 42 44 53 53 62 75 63 69 58 50 40 53 70 82 87 76 68 63 52 66 64 54 65 62 39 24 23 16 26 45 35 38 39 41 44
90 81 70 79 64 64 74 96 94 76 64 58 64 61 60 86 68 73 66 65 74 71 85 91 98 83 80 62 54 57 46 47 54 53 51 28 21 27 41 36 37 37 37 40 40
74 77 86 82 71 73 71 66 88 83 58 50 52 69 82 77 63 58 54 54 59 64 67 86 96 100 87 58 61 72 54 46 47 42 45 38 17 38 48 50 51 43 36 38 38
Wind_Speed
15 14 14 14 14 15 15 16 16 17 18 19 19 20 20 21 22 11 10 12 9 10 1 5 6 11 10 9 8 9 5 8 11 13 17 19 13 8 5 8 4 4 2 1 8
16 16 15 16 15 15 15 16 16 15 16 18 19 21 22 22 14 12 17 16 18 6 8 15 11 10 7 6 8 12 9 17 17 13 16 18 15 14 6 5 3 4 5 9 8
17 16 16 17 17 16 16 17 17 17 16 16 17 19 21 20 7 8 3 20 24 12 15 13 13 12 12 11 12 12 19 16 18 17 20 22 19 16 12 7 5 5 8 18 13
17 17 18 18 18 18 17 18 17 17 17 16 15 16 18 6 7 3 1 3 12 18 11 10 7 6 7 17 17 19 21 19 22 21 23 25 21 20 16 10 8 10 12 10 12
17 18 19 20 20 20 19 19 18 18 17 17 16 14 9 7 12 17 8 5 5 9 13 12 11 5 10 7 16 24 20 19 20 19 23 24 26 23 21 19 13 11 17 10 9
17 18 19 20 21 20 20 20 19 18 17 17 16 11 6 15 13 20 15 11 8 11 11 10 8 10 11 11 21 15 15 22 18 21 22 24 25 20 20 19 14 13 13 10 10
18 19 21 21 22 22 23 23 22 21 20 18 15 9 11 22 9 14 18 15 16 11 11 14 18 13 8 12 21 18 21 21 24 22 25 22 30 31 19 14 16 15 17 17 11
18 18 20 22 23 24 25 27 26 28 23 18 12 7 10 17 16 20 22 18 16 14 12 13 10 7 4 7 15 17 16 23 21 21 22 17 41 13 14 14 14 18 18 11 11
19 18 20 22 23 24 24 28 32 30 20 14 5 6 10 11 11 17 15 13 13 16 13 14 10 7 8 5 7 13 21 24 26 22 18 15 29 19 17 19 22 22 22 19 16
21 20 20 22 23 24 25 30 30 15 8 8 9 6 9 6 5 9 13 16 11 10 11 14 7 10 10 12 19 11 21 27 29 11 14 21 27 30 29 21 23 22 20 19 18
23 22 23 25 25 23 16 9 8 4 2 13 18 15 25 16 18 10 7 1 5 5 8 8 9 23 36 20 13 14 21 20 17 18 16 21 23 25 18 10 13 12 11 11 10
25 25 25 25 25 23 8 4 9 8 14 20 22 26 25 23 23 21 18 16 9 9 8 9 25 23 16 14 19 20 25 24 15 14 16 22 20 25 22 18 19 23 18 11 8
25 26 26 28 24 10 6 12 14 11 6 24 15 16 22 19 23 21 20 17 16 14 12 16 15 17 20 19 20 25 27 19 21 13 23 16 15 18 17 16 13 10 11 8 11
25 25 25 25 3 8 8 12 10 5 4 12 19 9 10 11 13 19 22 18 17 17 14 16 16 21 19 23 22 25 13 20 21 13 19 6 18 21 16 20 16 18 10 13 11
26 25 24 15 6 6 14 14 8 5 5 18 4 8 7 6 12 13 18 13 19 17 12 24 14 7 16 21 19 23 14 18 16 14 15 19 10 26 11 12 9 8 15 13 11
27 25 22 5 3 8 9 13 4 2 3 12 10 17 14 13 7 4 4 17 14 15 18 20 14 17 18 19 18 17 17 21 14 9 13 19 14 29 17 19 5 10 11 10 10
27 30 16 6 5 7 7 5 3 2 7 10 18 18 18 16 19 19 3 9 1 7 14 16 19 20 19 19 18 14 14 8 10 11 20 11 13 20 7 12 16 15 14 12 10
28 30 8 8 8 6 5 3 2 5 11 16 18 10 9 15 15 21 16 13 12 15 5 10 8 9 8 18 15 13 12 11 16 14 15 11 13 8 15 16 16 19 14 2 10
27 4 3 3 2 3 4 2 4 8 11 22 18 14 13 17 11 12 12 4 5 7 5 3 6 10 16 16 10 21 19 13 17 18 5 8 9 25 24 23 15 11 7 12 16
7 5 4 1 5 1 3 4 9 18 23 19 13 11 14 13 11 7 7 5 8 2 4 3 8 8 15 14 15 14 10 5 11 17 17 8 13 11 16 14 22 10 12 14 14
2 3 3 3 3 3 1 5 18 22 20 11 13 13 12 10 8 12 9 11 14 12 7 8 4 8 9 4 9 7 14 12 7 11 13 8 11 16 21 21 14 11 19 18 17
5 4 4 3 3 2 2 14 19 20 18 17 14 17 7 10 11 9 7 4 5 16 6 5 4 8 11 18 18 16 18 16 10 9 12 7 12 7 8 7 13 19 19 17 18
7 5 2 2 1 3 7 12 16 18 17 8 13 12 11 7 5 6 6 3 12 11 3 4 4 5 8 10 9 9 11 9 7 8 18 15 13 9 12 5 10 20 20 18 18
4 4 5 3 4 8 12 12 15 13 12 16 15 13 12 14 11 4 7 5 9 12 9 1 4 7 8 15 7 12 18 17 10 10 11 17 20 13 12 8 8 21 20 20 20
4 4 5 6 10 14 10 7 12 17 10 12 6 14 15 11 15 10 14 13 11 6 2 2 6 10 14 18 17 14 17 18 14 17 11 13 13 16 11 3 19 20 19 19 19
3 4 5 11 12 14 5 3 10 13 16 12 13 17 16 13 13 16 16 11 7 4 4 6 4 8 16 18 15 13 15 17 18 22 17 22 21 5 3 9 14 18 19 19 19
4 4 4 6 8 10 10 13 10 14 9 17 16 14 15 13 16 19 15 15 12 12 10 7 3 3 5 5 10 3 14 18 15 18 18 18 22 6 11 15 5 12 16 19 18
Wind_Direction
359 355 353 350 347 341 336 334 330 329 328 328 327 327 325 327 318 299 231 232 208 229 236 264 208 219 221 227 229 222 243 257 252 247 260 295 310 319 72 291 350 69 29 358 170
355 352 349 346 342 338 333 327 324 322 321 322 323 324 328 332 304 251 239 230 239 191 225 238 246 218 231 226 219 221 226 230 247 260 269 282 292 311 341 300 241 319 327 330 301
350 347 344 342 339 336 330 325 322 319 317 317 319 322 324 328 298 245 163 221 233 222 221 231 235 243 219 221 222 234 237 237 262 270 273 279 288 305 294 261 303 240 342 284 296
347 344 341 337 332 327 322 319 316 314 314 313 314 315 315 307 248 74 208 133 206 215 222 237 261 250 249 232 220 240 234 236 247 254 268 273 284 284 288 274 276 285 222 243 245
343 341 337 332 327 323 318 314 310 306 304 305 306 310 325 229 243 285 282 220 167 176 215 219 230 226 239 248 243 233 244 242 246 249 255 269 273 274 277 286 278 284 286 272 261
342 339 334 331 327 322 316 311 306 300 298 297 295 291 261 258 257 270 286 288 241 192 216 220 226 232 281 242 248 266 251 250 250 245 252 259 266 265 262 270 267 270 270 269 262
340 336 334 330 326 321 317 312 305 300 300 295 289 265 252 246 247 295 305 290 292 295 236 215 220 219 168 247 254 265 268 268 254 252 252 262 265 254 266 275 280 269 266 268 257
337 331 328 325 323 319 315 309 304 299 300 291 288 248 253 248 242 249 263 267 268 273 271 289 297 285 235 299 270 250 264 257 251 255 252 250 260 261 280 276 274 284 274 263 256
334 327 323 319 319 312 310 305 299 290 291 279 246 201 261 275 212 243 236 250 265 272 248 257 271 265 293 253 267 229 238 249 254 235 246 234 270 267 268 261 256 257 263 265 256
331 326 322 315 317 313 313 304 287 289 250 238 229 263 259 245 251 227 194 213 223 228 262 221 229 234 239 223 218 210 225 234 248 239 238 241 252 263 261 256 258 258 256 253 250
329 328 323 322 319 317 326 324 360 40 233 287 272 236 285 283 309 297 239 249 267 193 217 260 206 219 221 222 240 256 239 254 248 239 262 258 259 265 271 240 260 265 259 249 232
330 329 328 325 319 317 299 259 354 277 299 275 267 264 263 279 287 287 299 290 270 234 220 228 232 232 239 236 237 246 260 262 274 244 254 251 257 248 251 259 249 254 253 247 239
330 330 332 325 321 308 284 339 337 356 311 302 269 255 256 237 250 257 251 252 253 253 240 234 249 229 234 229 237 230 238 251 256 284 281 294 289 278 286 276 268 246 238 232 212
328 328 331 335 357 319 342 339 344 353 303 312 351 3 347 217 251 256 241 227 232 240 248 259 259 240 251 225 231 241 240 242 253 256 258 236 273 266 267 266 267 264 272 257 240
326 328 331 323 289 311 334 323 3 19 299 331 280 238 294 19 299 330 334 215 225 226 216 241 275 261 250 248 230 252 258 236 259 244 259 251 264 264 211 244 245 262 254 242 234
325 325 336 311 205 249 331 316 8 327 358 309 324 343 332 347 320 351 354 316 284 215 234 251 246 255 266 272 256 261 244 249 265 256 254 241 226 263 242 247 239 248 261 251 247
325 318 319 294 262 340 327 345 56 1 309 316 348 9 7 356 348 333 99 286 175 320 228 240 243 243 253 270 273 268 228 245 239 229 239 218 241 238 257 222 223 244 253 258 244
325 309 252 244 275 19 325 358 325 309 304 323 336 14 358 343 340 341 325 275 181 192 297 273 261 279 277 233 254 262 235 213 219 222 251 245 243 238 242 257 232 247 252 207 110
325 296 253 215 89 52 23 324 214 322 280 343 334 349 339 350 17 341 325 328 341 61 201 330 273 294 303 309 253 255 253 246 251 281 252 235 240 262 255 261 245 238 154 113 124
317 280 253 97 118 358 52 280 306 326 338 326 320 340 336 345 352 32 317 330 314 34 5 326 296 269 282 303 295 268 258 258 220 230 252 267 238 262 265 261 228 196 149 129 124
220 259 154 224 126 45 108 267 321 322 302 302 347 330 335 353 321 326 234 287 332 335 10 320 258 267 291 232 262 304 245 238 271 209 231 264 261 257 254 241 200 162 147 138 134
315 298 192 192 37 233 265 320 315 323 357 335 357 333 334 328 319 322 336 320 45 316 304 291 291 292 282 284 275 285 284 228 226 257 233 257 256 261 305 137 156 143 143 139 137
315 270 238 106 289 291 300 310 321 334 334 292 323 341 339 332 320 322 300 259 308 305 324 6 311 315 300 233 223 267 285 267 233 240 221 238 248 266 294 195 169 140 143 140 136
290 321 323 317 5 329 322 319 326 317 312 346 327 332 331 327 326 297 255 251 233 260 274 116 242 234 259 294 304 280 313 321 342 250 233 229 252 267 259 229 135 145 141 141 143
249 307 357 325 323 309 335 280 306 316 337 332 308 333 328 318 311 307 320 316 304 163 101 143 252 236 251 265 276 252 278 296 307 288 263 237 240 235 257 144 145 140 136 138 144
339 346 342 296 302 300 334 303 299 308 326 310 324 309 313 307 295 309 305 301 279 180 150 168 262 277 280 266 261 253 266 284 282 280 280 254 256 345 35 116 128 138 141 144 147
12 339 287 274 302 323 329 337 323 306 309 319 305 321 313 278 295 288 279 267 244 275 272 213 224 276 264 179 152 235 249 256 261 263 262 269 236 190 64 25 7 136 143 149 149